STARLINK AQ

Last updated on Sat Jul 15 2023 00:02:05 GMT+0000 (Coordinated Universal Time)

1 57256U 23094AQ 23195.75001157 -.01068441 34070-3 -30328-2 0 9990 2 57256 42.9949 276.0422 0024541 199.8991 244.2136 15.91897057 1307

Satellite not in orbit